Wind_Speed
10 9 9 9 8 7 7 7 8 8 9 10 11 11 11 11 12 12 11 10 10 11 10 9 9 9 9 9 8 8 7 7 7 6 7 7 6 5 5 5 4 3 3
9 9 9 9 8 7 8 8 8 9 9 9 10 10 10 10 11 11 10 10 10 10 10 9 9 8 8 7 7 7 7 7 8 8 7 6 6 5 5 5 4 4 4
10 10 9 8 8 8 8 8 8 8 9 9 9 9 9 9 10 10 10 10 10 9 10 10 9 9 8 8 7 7 7 8 7 7 7 6 5 6 6 6 5 4 4
11 10 9 8 8 8 8 8 7 7 8 8 8 9 9 9 8 9 9 9 9 9 10 10 9 9 8 8 7 7 7 8 8 7 7 6 6 6 6 6 5 5 5
10 10 9 9 8 7 7 7 6 6 7 7 7 7 8 8 8 8 8 8 8 8 10 10 9 8 7 8 8 8 8 8 7 7 6 6 6 6 5 5 5 5 5
10 10 9 9 8 7 7 6 6 6 6 6 6 6 6 7 7 7 7 8 8 8 9 9 8 8 8 8 8 7 7 7 7 6 6 6 6 6 5 5 5 5 4
10 10 9 8 8 7 7 7 6 6 5 6 6 6 6 7 6 7 7 7 8 8 9 9 8 8 7 7 7 7 7 7 6 6 6 6 6 5 5 5 5 4 4
10 9 9 8 8 8 8 7 6 6 6 6 6 5 6 6 6 7 7 7 7 8 8 8 8 7 7 7 7 7 7 6 6 5 5 5 5 5 4 4 4 4 3
10 10 9 8 8 8 8 8 7 6 6 6 6 5 4 4 5 6 6 7 7 7 7 7 7 6 6 6 6 6 6 6 6 5 5 5 5 4 4 3 3 3 3
10 9 9 9 8 8 8 8 7 6 6 5 5 5 4 4 5 5 6 6 7 7 7 6 6 6 6 5 5 5 6 6 5 5 5 5 4 4 4 4 3 2 2
10 9 9 8 8 8 8 7 7 6 6 5 5 4 4 5 5 5 5 5 5 5 5 5 5 5 5 5 5 5 5 5 5 5 5 5 5 4 4 3 2 2 2
10 9 9 9 8 7 7 7 7 6 5 5 4 4 4 4 4 4 4 4 4 4 4 5 5 5 5 5 4 4 4 4 5 5 5 5 4 4 4 3 3 2 2
10 9 8 8 8 8 7 7 7 6 5 5 5 4 4 4 4 4 4 4 4 3 3 4 4 4 4 4 4 4 4 4 5 4 5 5 4 4 4 4 3 2 2
10 9 9 8 8 8 8 7 6 5 5 5 5 4 4 4 4 3 3 4 3 3 3 3 3 3 3 3 3 3 4 5 4 4 4 4 4 4 4 4 3 3 2
11 10 9 9 9 9 8 8 7 6 6 5 4 4 4 3 3 3 3 3 3 2 2 2 2 2 2 3 3 3 4 4 4 4 3 3 3 3 3 3 3 2 2
12 11 9 9 9 9 9 8 8 7 7 6 5 4 3 3 3 3 3 3 3 3 3 3 2 2 2 2 2 3 3 4 4 4 3 3 3 3 2 2 2 2 2
12 12 11 10 9 9 8 8 8 7 7 6 5 5 3 3 2 2 2 2 3 3 4 3 3 3 2 2 2 2 3 3 3 3 3 3 2 2 2 2 2 2 2
12 12 12 11 10 10 9 8 8 8 7 6 5 5 4 3 3 2 2 2 2 3 3 3 3 4 3 2 2 2 2 2 2 3 3 2 2 2 2 3 3 3 3
12 12 12 12 11 9 9 8 8 8 8 7 6 5 4 4 4 3 2 2 2 2 3 3 3 4 4 3 2 2 2 2 3 3 3 3 3 3 3 4 4 4 4
11 12 12 11 11 10 9 9 8 8 8 7 7 5 5 4 4 4 3 2 3 3 4 4 4 4 4 4 3 3 3 3 4 4 5 5 4 4 5 5 5 6 6
11 11 11 11 11 11 10 9 8 7 7 8 8 7 5 5 5 5 4 4 4 4 4 4 4 5 4 4 4 4 4 4 5 5 6 6 6 5 6 6 6 7 7
10 11 10 10 10 10 10 9 8 8 7 8 8 7 6 6 6 5 4 5 5 5 4 4 5 6 5 5 5 5 5 5 6 6 7 7 7 7 7 7 8 8 9
10 10 9 9 9 9 10 10 9 8 8 7 7 7 7 7 7 7 5 5 5 6 6 6 6 5 6 6 5 5 6 6 6 7 8 8 8 8 9 10 9 10 10
10 9 9 9 10 10 10 9 9 9 8 7 7 7 7 8 8 8 7 7 7 7 7 6 6 6 6 6 6 6 7 8 8 8 9 10 10 11 11 11 11 11 11
9 9 10 10 10 10 10 10 9 9 8 8 7 7 7 8 8 8 9 8 8 8 8 7 7 7 7 7 7 8 9 9 10 11 11 12 11 12 13 13 12 12 12
9 10 10 10 9 9 10 10 9 9 8 8 7 7 7 7 8 9 9 9 9 8 9 9 9 8 9 9 9 9 10 11 12 12 13 13 13 13 13 13 13 13 13
Wind_Direction
62 65 68 70 69 70 75 81 98 98 99 97 95 95 102 103 100 97 99 101 103 104 103 105 108 105 106 102 106 108 108 99 96 103 97 94 92 93 99 96 96 94 100
62 62 64 60 65 69 76 85 94 96 103 103 101 98 99 101 98 98 100 101 104 103 104 105 103 100 104 104 101 102 99 95 99 100 94 91 90 94 93 95 101 106 110
60 58 55 51 57 69 78 82 93 99 107 107 107 104 100 99 99 99 103 103 105 102 102 102 104 104 101 102 101 98 98 95 96 89 84 82 85 89 93 93 96 104 103
58 55 54 53 56 64 72 73 83 99 107 107 107 107 103 101 99 99 102 106 106 100 97 100 104 103 100 96 94 92 93 90 85 84 80 76 78 85 88 91 92 96 98
54 51 51 51 50 56 60 64 70 93 101 104 104 101 103 105 109 107 108 107 106 104 97 97 101 101 101 97 95 92 89 86 84 83 80 75 74 77 78 83 89 97 97
53 50 49 49 49 51 52 57 69 82 96 100 99 97 106 108 108 108 107 102 98 104 100 96 99 97 93 92 91 86 83 83 81 80 80 75 74 74 77 80 89 93 92
55 52 50 51 52 52 53 53 61 69 89 92 90 94 99 102 108 107 104 98 96 98 96 94 97 96 92 89 83 79 77 79 80 78 76 73 72 71 75 83 89 94 98
54 53 51 51 52 54 55 52 52 66 79 85 88 95 91 92 97 100 95 90 93 95 96 94 94 93 92 88 84 79 73 73 73 72 70 69 69 68 72 80 86 92 103
53 53 50 49 51 55 54 52 52 60 73 78 83 82 81 90 93 100 101 91 91 90 92 92 89 90 90 88 84 79 74 72 70 65 63 64 67 67 71 79 80 90 104
52 51 49 50 52 52 50 49 48 56 66 74 79 81 85 93 95 99 98 94 92 88 90 93 92 91 88 84 83 79 74 69 66 60 57 60 66 67 66 67 71 89 105
50 49 48 50 50 49 48 48 47 55 65 68 73 82 94 97 95 97 94 93 92 88 90 92 93 91 83 80 83 79 75 67 62 56 53 58 66 62 58 58 65 88 113
45 46 49 50 48 45 45 47 48 51 59 63 69 77 87 97 97 97 93 91 92 90 93 92 90 86 80 77 77 74 71 66 63 56 57 59 62 59 58 57 71 89 114
41 45 48 47 42 40 40 40 42 46 54 61 65 74 77 85 91 97 95 92 89 87 90 89 87 83 77 77 73 67 63 60 59 59 62 61 58 56 54 58 63 75 85
38 40 44 42 40 36 35 35 36 44 53 61 61 66 75 79 81 90 94 92 84 84 85 84 78 82 78 75 78 68 60 57 55 56 54 51 50 46 49 54 54 61 79
37 36 39 36 35 33 34 35 36 45 51 57 59 59 60 63 64 72 71 82 74 71 67 69 67 66 61 62 63 60 57 53 49 54 45 40 45 47 45 48 49 53 55
36 35 35 35 34 33 33 35 38 42 48 54 56 49 47 49 48 45 55 63 59 55 50 44 32 26 33 39 41 50 48 50 52 43 36 36 43 42 38 34 29 29 23
34 33 33 32 31 32 32 35 38 40 42 41 41 43 45 43 48 61 53 39 40 42 44 37 26 10 5 17 18 34 44 46 41 22 20 20 17 11 2 355 346 338 332
32 31 31 30 29 30 32 36 39 39 38 36 37 42 42 39 42 36 23 29 33 28 24 21 17 3 356 359 14 22 25 20 13 4 1 355 348 337 324 318 316 316 318
29 28 28 27 27 26 30 35 38 38 37 37 36 39 45 42 39 28 26 24 11 8 4 358 358 350 340 347 346 336 338 333 337 342 341 335 329 328 324 318 312 307 307
24 24 24 23 23 24 32 32 30 32 36 39 37 42 43 32 24 16 14 10 355 349 343 345 340 336 336 333 323 316 318 315 320 323 327 323 316 316 314 310 306 300 297
18 17 17 18 20 24 32 36 34 37 40 36 33 30 29 26 19 12 6 7 355 341 333 330 330 330 326 326 315 309 310 311 315 315 315 314 308 306 302 305 306 300 294
10 10 11 12 14 16 19 25 27 26 27 27 26 27 23 20 14 11 5 1 354 345 332 326 325 321 319 315 309 305 309 311 314 312 310 308 306 302 299 297 296 294 294
3 3 1 5 7 10 12 12 16 17 15 16 17 16 14 14 11 11 3 358 350 350 344 331 323 318 321 315 311 303 302 305 309 309 309 308 303 297 295 296 295 294 293
356 355 352 359 0 5 5 6 8 9 9 10 11 9 11 15 14 6 359 355 351 348 347 338 327 322 326 322 318 310 303 305 305 306 303 304 300 295 297 300 297 293 291
348 350 350 355 357 359 1 2 1 360 360 360 359 359 2 3 4 1 356 350 348 350 348 341 332 328 330 327 320 316 313 309 307 305 305 305 304 300 298 298 299 295 295
338 344 346 348 350 354 357 358 356 355 351 350 352 350 345 344 347 347 345 343 345 346 342 337 332 327 320 319 317 315 312 309 307 307 306 304 304 303 300 297 297 297 296
Height
5878 5877 5876 5876 5875 5875 5875 5875 5874 5874 5874 5874 5874 5874 5874 5874 5874 5874 5874 5875 5875 5876 5877 5877 5877 5878 5878 5879 5880 5881 5881 5882 5883 5883 5884 5885 5886 5886 5887 5887 5888 5888 5888
5880 5879 5878 5878 5877 5877 5877 5876 5876 5876 5876 5876 5876 5876 5876 5876 5876 5876 5877 5877 5877 5878 5878 5879 5879 5880 5881 5881 5882 5882 5882 5883 5884 5885 5885 5886 5886 5887 5887 5888 5888 5889 5889
5882 5881 5880 5880 5879 5879 5879 5878 5878 5878 5878 5878 5878 5878 5878 5878 5878 5878 5879 5879 5879 5879 5879 5880 5881 5881 5882 5883 5883 5884 5884 5885 5885 5886 5886 5887 5887 5888 5888 5888 5889 5889 5890
5884 5883 5883 5882 5882 5881 5881 5881 5880 5880 5880 5880 5880 5880 5880 5880 5880 5881 5881 5881 5881 5881 5881 5881 5882 5883 5884 5884 5885 5886 5886 5886 5887 5887 5888 5888 5888 5889 5889 5889 5890 5890 5891
5886 5885 5885 5884 5884 5883 5883 5882 5882 5882 5882 5882 5882 5882 5882 5882 5882 5882 5883 5883 5883 5883 5883 5884 5884 5885 5885 5886 5887 5887 5887 5888 5888 5889 5889 5889 5889 5890 5890 5890 5891 5891 5892
5888 5887 5887 5886 5886 5885 5885 5885 5884 5884 5884 5884 5884 5884 5884 5884 5884 5884 5884 5884 5884 5885 5885 5886 5886 5887 5888 5888 5888 5889 5889 5889 5890 5890 5890 5890 5890 5890 5891 5891 5892 5892 5892
5890 5889 5888 5888 5888 5887 5887 5886 5886 5885 5885 5885 5885 5885 5886 5886 5886 5886 5886 5886 5886 5887 5887 5888 5889 5889 5889 5889 5890 5890 5890 5890 5891 5891 5891 5891 5891 5891 5892 5892 5892 5893 5893
5892 5891 5890 5890 5890 5889 5888 5888 5888 5887 5887 5887 5887 5887 5887 5887 5887 5888 5888 5888 5888 5889 5889 5890 5890 5891 5891 5891 5891 5891 5892 5892 5892 5892 5892 5892 5892 5892 5892 5892 5893 5893 5893
5893 5893 5892 5892 5891 5891 5890 5890 5889 5889 5889 5889 5888 5888 5889 5889 5889 5889 5889 5890 5890 5891 5891 5891 5892 5892 5892 5893 5893 5893 5893 5893 5893 5893 5893 5893 5893 5893 5893 5893 5893 5893 5894
5895 5895 5894 5893 5893 5892 5892 5891 5891 5890 5890 5890 5890 5890 5890 5890 5890 5891 5891 5891 5892 5892 5892 5893 5893 5893 5894 5894 5894 5894 5894 5894 5894 5894 5894 5893 5893 5894 5894 5893 5894 5894 5894
5897 5896 5896 5895 5895 5894 5893 5893 5892 5892 5892 5891 5891 5892 5892 5892 5892 5892 5892 5893 5893 5894 5894 5894 5895 5895 5895 5895 5895 5895 5895 5895 5895 5895 5895 5894 5894 5894 5894 5894 5894 5894 5894
5899 5899 5898 5897 5896 5896 5895 5894 5894 5893 5893 5893 5893 5893 5893 5894 5894 5894 5894 5894 5895 5895 5895 5895 5896 5896 5896 5896 5896 5896 5896 5896 5896 5896 5895 5895 5895 5895 5895 5894 5894 5894 5895
5901 5900 5900 5899 5898 5897 5897 5896 5895 5895 5894 5894 5894 5894 5894 5895 5895 5895 5895 5896 5896 5896 5896 5896 5897 5897 5897 5897 5897 5897 5897 5897 5897 5896 5896 5896 5896 5895 5895 5895 5895 5895 5895
5904 5903 5902 5901 5900 5899 5898 5898 5897 5896 5896 5896 5896 5896 5896 5896 5896 5896 5896 5897 5897 5897 5897 5898 5898 5898 5898 5898 5898 5898 5898 5897 5897 5897 5897 5897 5896 5896 5896 5895 5895 5895 5895
5905 5904 5903 5902 5902 5901 5900 5899 5898 5897 5897 5896 5897 5897 5897 5897 5897 5897 5897 5898 5898 5898 5898 5898 5899 5899 5899 5899 5899 5899 5898 5898 5898 5898 5897 5897 5897 5896 5896 5896 5896 5896 5896
5907 5906 5905 5904 5903 5903 5902 5901 5900 5899 5898 5898 5898 5898 5898 5898 5898 5898 5899 5899 5899 5899 5899 5899 5899 5899 5899 5899 5899 5899 5899 5898 5898 5898 5898 5897 5897 5897 5897 5897 5896 5896 5896
5909 5908 5907 5906 5905 5904 5903 5902 5901 5900 5900 5899 5899 5899 5899 5898 5899 5899 5899 5900 5900 5900 5900 5900 5899 5899 5900 5900 5899 5899 5899 5899 5899 5898 5898 5898 5898 5897 5897 5897 5897 5897 5896
5911 5910 5909 5908 5907 5906 5904 5903 5902 5902 5901 5901 5900 5900 5900 5899 5900 5900 5900 5900 5900 5900 5900 5900 5900 5900 5900 5900 5899 5899 5899 5899 5899 5899 5898 5898 5898 5898 5897 5897 5897 5897 5896
5913 5912 5911 5910 5908 5907 5906 5905 5904 5903 5902 5902 5901 5901 5901 5901 5901 5901 5901 5901 5901 5901 5901 5900 5900 5900 5900 5899 5899 5899 5899 5899 5899 5898 5898 5898 5898 5897 5897 5897 5896 5896 5896
5915 5914 5912 5911 5910 5908 5907 5906 5906 5905 5904 5903 5903 5902 5902 5902 5902 5901 5901 5901 5901 5901 5901 5900 5900 5900 5900 5899 5899 5899 5899 5899 5898 5898 5898 5897 5897 5897 5896 5896 5895 5895 5895
5916 5915 5914 5912 5911 5910 5909 5907 5907 5906 5906 5905 5904 5904 5903 5903 5903 5902 5902 5901 5901 5901 5901 5900 5900 5900 5900 5899 5899 5899 5898 5898 5898 5897 5897 5897 5896 5896 5895 5895 5894 5894 5893
5917 5916 5914 5913 5912 5911 5910 5909 5908 5907 5907 5906 5906 5905 5904 5904 5903 5903 5902 5902 5901 5901 5900 5900 5900 5900 5899 5899 5899 5898 5898 5898 5897 5896 5896 5895 5895 5894 5894 5893 5893 5892 5892
5918 5917 5915 5914 5913 5911 5911 5910 5909 5908 5907 5907 5906 5906 5905 5904 5904 5903 5902 5902 5901 5901 5900 5900 5899 5899 5899 5898 5897 5897 5897 5896 5896 5895 5894 5894 5893 5892 5892 5891 5890 5890 5890
5918 5917 5915 5913 5913 5912 5911 5910 5909 5909 5908 5907 5907 5906 5905 5905 5904 5904 5903 5902 5901 5900 5900 5899 5899 5898 5898 5897 5896 5896 5895 5895 5894 5894 5893 5892 5891 5890 5889 5888 5888 5888 5887
5918 5918 5916 5915 5914 5913 5912 5911 5910 5909 5908 5908 5907 5907 5906 5905 5905 5904 5903 5902 5901 5900 5899 5899 5898 5897 5897 5896 5895 5895 5894 5893 5893 5892 5891 5890 5889 5888 5887 5886 5886 5885 5884
5919 5918 5917 5916 5914 5913 5912 5911 5910 5909 5908 5908 5907 5907 5906 5905 5904 5903 5903 5902 5901 5900 5899 5898 5897 5896 5895 5894 5894 5893 5892 5891 5891 5890 5889 5888 5887 5886 5885 5884 5883 5883 5882